GW5555 Weather Reports


Display with metric or nautical units.
time (UTC)temp
F
wind
direction
speed
MPH
gust
MPH
rain 1hr
in
rain 24hr
in
rain mn
in
humidity
%
barometer
mb
20260503023820 57 101 0.0 0.0 0.00 0.00 0.00 47 1011.7
20260503023318 57 91 0.0 0.0 0.00 0.00 0.00 47 1011.9
20260503022814 57 81 1.0 1.0 0.00 0.00 0.00 47 1011.7
20260503022314 58 115 1.0 1.0 0.00 0.00 0.00 46 1011.6
20260503021811 58 122 1.0 1.0 0.00 0.00 0.00 46 1011.7
20260503021307 58 120 1.0 1.0 0.00 0.00 0.00 46 1011.7
20260503020805 59 105 1.0 1.0 0.00 0.00 0.00 45 1011.8
20260503020302 59 98 2.0 2.0 0.00 0.00 0.00 45 1011.5
20260503015758 59 74 4.0 4.0 0.00 0.00 0.00 44 1011.5
20260503015256 60 99 1.0 1.0 0.00 0.00 0.00 44 1011.4
20260503014751 60 98 1.0 1.0 0.00 0.00 0.00 42 1011.5
20260503014249 61 99 0.0 1.0 0.00 0.00 0.00 41 1011.5
20260503013746 61 99 0.0 0.0 0.00 0.00 0.00 41 1011.5
20260503013244 61 71 1.0 1.0 0.00 0.00 0.00 41 1011.7
20260503012741 61 102 0.0 0.0 0.00 0.00 0.00 41 1011.7
20260503012238 61 102 0.0 0.0 0.00 0.00 0.00 40 1011.6
20260503011734 62 86 2.0 2.0 0.00 0.00 0.00 40 1011.6
20260503011232 62 52 0.0 0.0 0.00 0.00 0.00 40 1011.7
20260503010727 63 22 4.0 4.0 0.00 0.00 0.00 39 1011.9
20260503010225 62 294 1.0 1.0 0.00 0.00 0.00 39 1011.8
20260503005722 63 20 2.0 3.0 0.00 0.00 0.00 39 1011.9
20260503005220 63 8 2.0 2.0 0.00 0.00 0.00 40 1012.0
20260503004715 63 322 2.0 2.0 0.00 0.00 0.00 39 1011.7
20260503004214 62 329 0.0 1.0 0.00 0.00 0.00 40 1011.8
20260503003711 62 218 1.0 2.0 0.00 0.00 0.00 41 1011.7
20260503003208 62 157 0.0 0.0 0.00 0.00 0.00 41 1012.3
20260503002704 62 318 3.0 4.0 0.00 0.00 0.00 40 1012.0
20260503002201 62 277 3.0 3.0 0.00 0.00 0.00 40 1012.1
20260503001657 62 284 3.0 3.0 0.00 0.00 0.00 40 1012.4
20260503001154 62 236 1.0 1.0 0.00 0.00 0.00 41 1012.3
20260503000652 62 342 5.0 6.0 0.00 0.00 0.00 40 1012.1
20260503000149 62 284 6.0 7.0 0.00 0.00 0.00 40 1012.1
20260502235645 62 332 4.0 4.0 0.00 0.00 0.00 40 1012.3
20260502235144 62 351 3.0 4.0 0.00 0.00 0.00 40 1012.4
20260502234639 62 283 2.0 2.0 0.00 0.00 0.00 40 1012.3
20260502234137 62 254 3.0 3.0 0.00 0.00 0.00 40 1012.6
20260502233632 62 239 5.0 6.0 0.00 0.00 0.00 40 1012.5
20260502233129 62 264 5.0 6.0 0.00 0.00 0.00 40 1012.5
20260502232625 63 283 6.0 8.0 0.00 0.00 0.00 39 1012.7
20260502232123 62 58 2.0 2.0 0.00 0.00 0.00 41 1012.6
20260502231619 62 23 4.0 4.0 0.00 0.00 0.00 41 1012.9
20260502231118 62 272 2.0 3.0 0.00 0.00 0.00 40 1012.8
20260502230616 63 261 5.0 7.0 0.00 0.00 0.00 39 1012.6
20260502230114 64 276 5.0 6.0 0.00 0.00 0.00 39 1012.6
20260502225609 65 53 3.0 3.0 0.00 0.00 0.00 38 1012.7
20260502225106 64 129 1.0 1.0 0.00 0.00 0.00 40 1012.9
20260502224602 64 40 1.0 2.0 0.00 0.00 0.00 39 1012.9
20260502224059 64 279 3.0 3.0 0.00 0.00 0.00 39 1013.2
20260502223557 64 295 7.0 8.0 0.00 0.00 0.00 39 1013.2
20260502223055 63 175 1.0 2.0 0.00 0.00 0.00 41 1013.2
20260502222552 63 285 6.0 8.0 0.00 0.00 0.00 41 1013.4
20260502222048 64 292 4.0 4.0 0.00 0.00 0.00 40 1013.5
20260502221544 64 350 4.0 4.0 0.00 0.00 0.00 39 1013.7
20260502221042 63 54 2.0 3.0 0.00 0.00 0.00 41 1013.5
20260502220537 64 324 5.0 7.0 0.00 0.00 0.00 39 1013.8
20260502220034 63 175 0.0 0.0 0.00 0.00 0.00 40 1013.6
20260502215532 62 18 2.0 3.0 0.00 0.00 0.00 42 1013.5
20260502215028 62 348 3.0 4.0 0.00 0.00 0.00 43 1013.8
20260502214525 62 292 5.0 6.0 0.00 0.00 0.00 42 1013.8
20260502214023 63 321 9.0 10.0 0.00 0.00 0.00 41 1014.1
20260502213519 62 13 6.0 8.0 0.00 0.00 0.00 42 1014.1
20260502213018 61 121 1.0 1.0 0.00 0.00 0.00 43 1014.4
20260502212516 61 307 4.0 4.0 0.00 0.00 0.00 43 1014.3
20260502212013 62 24 4.0 4.0 0.00 0.00 0.00 42 1014.3
20260502211509 62 24 3.0 3.0 0.00 0.00 0.00 42 1014.3
20260502211006 60 13 4.0 6.0 0.00 0.00 0.00 44 1014.4
20260502210503 60 97 1.0 1.0 0.00 0.00 0.00 43 1014.4
20260502210000 61 7 3.0 4.0 0.00 0.00 0.00 43 1014.4
20260502205456 61 278 2.0 3.0 0.00 0.00 0.00 44 1014.5
20260502204954 62 354 4.0 4.0 0.00 0.00 0.00 42 1014.5
20260502204450 61 350 2.0 2.0 0.00 0.00 0.00 42 1014.3
20260502203948 61 34 2.0 2.0 0.00 0.00 0.00 42 1014.5
20260502203445 61 254 8.0 9.0 0.00 0.00 0.00 42 1014.6
20260502202941 60 328 5.0 7.0 0.00 0.00 0.00 43 1014.9
20260502202438 60 319 2.0 2.0 0.00 0.00 0.00 43 1014.6
20260502201936 62 247 5.0 6.0 0.00 0.00 0.00 41 1014.7
20260502201432 60 186 2.0 2.0 0.00 0.00 0.00 43 1014.7
20260502200929 60 199 2.0 3.0 0.00 0.00 0.00 44 1015.1
20260502200425 60 7 5.0 7.0 0.00 0.00 0.00 42 1014.9
20260502195923 0 0.0 0.0 0.00 0.00 0.00 1014.9
20260502195419 62 8 4.0 4.0 0.00 0.00 0.00 43 1014.9
20260502194916 62 8 4.0 4.0 0.00 0.00 0.00 43 1015.2
20260502194413 60 158 0.0 1.0 0.00 0.00 0.00 44 1015.2
20260502193909 59 238 2.0 2.0 0.00 0.00 0.00 45 1015.2
20260502193406 60 52 0.0 0.0 0.00 0.00 0.00 44 1015.3
20260502192901 60 25 3.0 3.0 0.00 0.00 0.00 44 1015.3
20260502192359 61 66 4.0 4.0 0.00 0.00 0.00 43 1015.3
20260502191855 59 29 3.0 4.0 0.00 0.00 0.00 45 1015.5
20260502191354 61 14 6.0 8.0 0.00 0.00 0.00 44 1015.4
20260502190851 60 26 7.0 8.0 0.00 0.00 0.00 45 1015.5
20260502190348 59 57 7.0 8.0 0.00 0.00 0.00 46 1015.4
20260502185844 59 14 8.0 10.0 0.00 0.00 0.00 47 1015.8
20260502185339 58 345 10.0 11.0 0.00 0.00 0.00 47 1015.6
20260502184837 58 3 6.0 6.0 0.00 0.00 0.00 48 1015.7
20260502184332 58 356 10.0 14.0 0.00 0.00 0.00 47 1016.0
20260502183829 58 6 10.0 11.0 0.00 0.00 0.00 47 1015.6
20260502183325 59 10 9.0 10.0 0.00 0.00 0.00 48 1015.8
20260502182820 59 17 7.0 8.0 0.00 0.00 0.00 47 1015.8
20260502182316 58 36 8.0 9.0 0.00 0.00 0.00 48 1015.8
20260502181813 59 9 8.0 10.0 0.00 0.00 0.00 46 1015.8
20260502181312 59 33 7.0 8.0 0.00 0.00 0.00 47 1015.6
20260502180809 59 335 6.0 7.0 0.00 0.00 0.00 46 1015.7
20260502180306 58 352 7.0 8.0 0.00 0.00 0.00 47 1015.7
20260502170225 57 13 9.0 10.0 0.00 0.00 0.00 50 1016.0
20260502164207 59 10 9.0 10.0 0.00 0.00 0.00 49 1015.8
20260502163702 59 32 9.0 10.0 0.00 0.00 0.00 48 1015.8
20260502163159 58 353 8.0 9.0 0.00 0.00 0.00 50 1016.1
20260502162655 58 345 12.0 15.0 0.00 0.00 0.00 49 1016.0
20260502162152 57 352 11.0 11.0 0.00 0.00 0.00 50 1015.7
20260502161650 56 13 8.0 10.0 0.00 0.00 0.00 52 1016.0
20260502161146 56 8 11.0 14.0 0.00 0.00 0.00 52 1015.8
20260502160644 56 357 12.0 14.0 0.00 0.00 0.00 51 1015.6
20260502160143 56 1 12.0 15.0 0.00 0.00 0.00 51 1015.7
20260502152057 54 13 13.0 16.0 0.00 0.00 0.00 53 1015.4
20260502151554 54 15 9.0 11.0 0.00 0.00 0.00 54 1015.7
20260502151051 53 9 11.0 13.0 0.00 0.00 0.00 55 1015.4
20260502150549 53 27 12.0 14.0 0.00 0.00 0.00 55 1015.5
20260502130433 52 37 10.0 13.0 0.00 0.00 0.00 51 1014.6
20260502123416 50 34 6.0 8.0 0.00 0.00 0.00 52 1014.4
20260502122913 51 16 8.0 9.0 0.00 0.00 0.00 50 1014.6
20260502122409 51 28 10.0 13.0 0.00 0.00 0.00 50 1014.4
20260502121908 51 28 12.0 14.0 0.00 0.00 0.00 51 1014.3
20260502121404 51 24 10.0 11.0 0.00 0.00 0.00 51 1014.3
20260502120902 51 21 12.0 13.0 0.00 0.00 0.00 51 1014.5
20260502120358 50 36 10.0 13.0 0.00 0.00 0.00 51 1014.2
20260502115855 50 35 9.0 10.0 0.00 0.00 0.00 51 1014.3
20260502115353 49 25 10.0 13.0 0.00 0.00 0.00 52 1014.2
20260502114848 50 3 8.0 10.0 0.00 0.00 0.00 52 1014.3
20260502114346 50 34 7.0 8.0 0.00 0.00 0.00 51 1014.2
20260502113843 51 46 8.0 9.0 0.00 0.00 0.00 49 1014.2
20260502113340 52 71 12.0 15.0 0.00 0.00 0.00 48 1013.9
20260502112838 52 55 13.0 19.0 0.00 0.00 0.00 48 1013.7
20260502112335 51 60 12.0 16.0 0.00 0.00 0.00 48 1013.6
20260502111833 52 62 11.0 13.0 0.00 0.00 0.00 47 1013.5
20260502111331 52 71 13.0 16.0 0.00 0.00 0.00 48 1013.7
20260502110828 52 59 12.0 16.0 0.00 0.00 0.00 48 1013.6
20260502110326 52 55 16.0 18.0 0.00 0.00 0.00 49 1013.4
20260502105823 52 55 16.0 19.0 0.00 0.00 0.00 49 1013.4
20260502105319 52 54 14.0 17.0 0.00 0.00 0.00 50 1013.3
20260502104817 52 44 16.0 19.0 0.00 0.00 0.00 49 1012.9
20260502104314 52 72 15.0 19.0 0.00 0.00 0.00 48 1013.0
20260502103812 52 61 15.0 17.0 0.00 0.00 0.00 48 1012.8
20260502103309 52 60 9.0 11.0 0.00 0.00 0.00 48 1012.8
20260502102806 52 54 13.0 15.0 0.00 0.00 0.00 48 1012.9
20260502102305 52 86 11.0 15.0 0.00 0.00 0.00 48 1012.7
20260502101800 52 52 13.0 15.0 0.00 0.00 0.00 47 1012.7
20260502101258 53 52 8.0 9.0 0.00 0.00 0.00 47 1012.5
20260502100756 53 71 11.0 14.0 0.00 0.00 0.00 47 1012.6
20260502100255 53 78 9.0 11.0 0.00 0.00 0.00 46 1012.6
20260502091229 51 18 11.0 14.0 0.00 0.00 0.00 46 1011.8
20260502090726 52 0 11.0 13.0 0.00 0.00 0.00 46 1011.6
20260502090223 52 18 10.0 11.0 0.00 0.00 0.00 45 1011.7
20260502071119 54 356 4.0 4.0 0.00 0.00 0.00 40 1011.8
20260502070617 54 356 8.0 9.0 0.00 0.00 0.00 38 1011.8
20260502070114 55 145 0.0 1.0 0.00 0.00 0.00 40 1011.9
20260502065612 55 280 2.0 2.0 0.00 0.00 0.00 39 1011.7
20260502065110 56 41 3.0 4.0 0.00 0.00 0.00 37 1011.7
20260502064608 56 5 8.0 10.0 0.00 0.00 0.00 37 1011.7
20260502064105 57 20 6.0 7.0 0.00 0.00 0.00 36 1011.8
20260502063603 58 5 9.0 13.0 0.00 0.00 0.00 35 1011.6
20260502063100 58 9 8.0 9.0 0.00 0.00 0.00 35 1011.6
20260502062557 58 15 6.0 8.0 0.00 0.00 0.00 35 1011.7
20260502062055 58 9 8.0 8.0 0.00 0.00 0.00 36 1011.5
20260502061553 57 10 6.0 8.0 0.00 0.00 0.00 37 1011.5
20260502061050 57 16 7.0 8.0 0.00 0.00 0.00 37 1011.7
20260502060545 56 18 8.0 9.0 0.00 0.00 0.00 38 1011.4
20260502060042 56 6 8.0 9.0 0.00 0.00 0.00 38 1011.7
20260502055539 56 13 9.0 10.0 0.00 0.00 0.00 38 1011.6
20260502055038 56 21 8.0 10.0 0.00 0.00 0.00 38 1011.7
20260502054536 56 13 8.0 9.0 0.00 0.00 0.00 37 1011.6
20260502054033 56 18 8.0 9.0 0.00 0.00 0.00 38 1011.5
20260502053530 55 24 6.0 8.0 0.00 0.00 0.00 38 1011.5
20260502053028 54 6 3.0 4.0 0.00 0.00 0.00 39 1011.5
20260502052526 53 330 4.0 4.0 0.00 0.00 0.00 40 1011.7
20260502052024 54 327 3.0 3.0 0.00 0.00 0.00 40 1011.8
20260502051521 53 345 4.0 6.0 0.00 0.00 0.00 40 1011.6
20260502051019 51 322 2.0 2.0 0.00 0.00 0.00 42 1011.6
20260502050515 51 0 2.0 3.0 0.00 0.00 0.00 42 1011.8
20260502050012 52 333 2.0 2.0 0.00 0.00 0.00 41 1011.8
20260502045509 53 320 2.0 3.0 0.00 0.00 0.00 40 1011.6
20260502045006 54 2 2.0 2.0 0.00 0.00 0.00 39 1011.6
20260502044502 57 36 2.0 2.0 0.00 0.00 0.00 36 1011.9
20260502043959 55 277 3.0 4.0 0.00 0.00 0.00 36 1011.6
20260502043457 56 352 3.0 4.0 0.00 0.00 0.00 37 1011.7
20260502042955 58 14 4.0 6.0 0.00 0.00 0.00 34 1011.6
20260502042453 56 344 2.0 2.0 0.00 0.00 0.00 36 1011.8
20260502041950 56 329 4.0 4.0 0.00 0.00 0.00 35 1011.5
20260502041448 54 351 2.0 2.0 0.00 0.00 0.00 37 1011.7
20260502040944 54 314 3.0 3.0 0.00 0.00 0.00 38 1011.7
20260502040441 52 315 3.0 3.0 0.00 0.00 0.00 38 1011.7
20260502035937 53 358 3.0 3.0 0.00 0.00 0.00 38 1011.5
20260502035434 55 350 2.0 2.0 0.00 0.00 0.00 35 1011.5
20260502034932 54 308 2.0 2.0 0.00 0.00 0.00 35 1011.6
20260502034430 53 272 2.0 2.0 0.00 0.00 0.00 37 1011.5
20260502033928 53 310 2.0 2.0 0.00 0.00 0.00 38 1011.5
20260502033425 54 345 3.0 3.0 0.00 0.00 0.00 36 1011.4
20260502032922 57 307 2.0 2.0 0.00 0.00 0.00 34 1011.0
20260502032419 57 338 2.0 2.0 0.00 0.00 0.00 32 1011.3
20260502031916 59 287 2.0 2.0 0.00 0.00 0.00 31 1011.4
20260502031414 57 317 2.0 3.0 0.00 0.00 0.00 32 1011.0
20260502030912 60 338 1.0 2.0 0.00 0.00 0.00 30 1011.1
20260502030410 59 309 3.0 3.0 0.00 0.00 0.00 30 1011.1
20260502025908 57 282 3.0 3.0 0.00 0.00 0.00 32 1011.0
20260502025405 57 75 0.0 0.0 0.00 0.00 0.00 33 1010.9
20260502024902 58 353 2.0 2.0 0.00 0.00 0.00 32 1011.1
20260502024400 59 277 3.0 3.0 0.00 0.00 0.00 30 1010.8